Regional Weather Roundup
Issued by NWS

Home | Current Version | Previous Version | Graphics & Text | Print | Product List | Glossary On
Versions: 1 2 3 4 5 6 7 8 9 10 11 12 13 14 15 16 17 18 19 20 21 22 23 24 25 26 27 28 29 30 31 32 33 34 35 36 37 38 39 40 41 42 43 44 45 46 47 48 49 50
000
ASUS43 KDTX 020201
RWRMI
MICHIGAN HOURLY REGIONAL WEATHER ROUNDUP
NATIONAL WEATHER SERVICE DETROIT/PONTIAC MI
1000 PM EDT TUE SEP 01 2015

NOTE: "FAIR" INDICATES FEW OR NO CLOUDS BELOW 12,000 FEET WITH NO
SIGNIFICANT WEATHER AND/OR OBSTRUCTION TO VISIBILITY.

MIZ047>049-052>055-059>063-066>070-074>076-081>083-020300-
SOUTHEAST LOWER MICHIGAN

CITY           SKY/WX    TMP DP  RH WIND       PRES   REMARKS
ADRIAN         CLEAR     74  68  81 W5        30.08R
ALMA           LGT RAIN  75  73  92 S5        30.04R
ANN ARBOR      CLEAR     72  68  87 W5        30.06R
BAD AXE        CLEAR     71  69  95 SE3       30.05S FOG
DETROIT CITY   CLEAR     79  69  71 S6        30.05R
DETROIT        PTCLDY    78  71  79 S3        30.06R
FLINT          CLEAR     74  67  78 SW3       30.05R
GROSSE ILE     CLEAR     75  73  94 S5        30.05R
HILLSDALE      CLEAR     74  72  91 S3        30.09S
HOWELL         CLEAR     75  67  76 CALM      30.06R

CITY           SKY/WX    TMP DP  RH WIND       PRES   REMARKS
JACKSON        CLEAR     73  68  84 SW3       30.07R
LAMBERTVILLE   CLEAR     79  68  69 SW5       30.07S
LANSING        CLEAR     77  69  76 SW8       30.06R
LAPEER         FAIR      68  68  98 CALM      30.05S FOG
MASON          MOCLDY    73  67  82 CALM      30.06S
MONROE         CLEAR     78  68  71 SW6       30.05R
MT. CLEMENS    CLEAR     76  70  81 S6        30.03S HAZE
PONTIAC        CLEAR     77  68  73 W3        30.06R
PORT HOPE        N/A     72  69  90 S3        30.02S
PORT HURON     FOG       70  70 100 CALM      30.05R VSB 1
TRI CITIES     CLEAR     78  69  73 S6        30.03S
MIDLAND        FAIR      74  71  91 CALM      30.02S
TROY           CLEAR     81  68  64 S3        30.07R
SAGINAW HB     CLEAR     72  68  88 S3        30.03S
$$
MIZ043>046-050>051-056>058-064>065-071>073-077>080-020300-
SOUTHWEST LOWER MICHIGAN

CITY           SKY/WX    TMP DP  RH WIND       PRES   REMARKS
BATTLE CREEK   CLEAR     76  68  76 S5        30.07R
BENTON HARBOR  CLEAR     78  71  79 S6        30.03R
BIG RAPIDS     CLEAR     72  70  93 CALM      30.03S
COLDWATER      CLEAR     73  71  93 CALM      30.07S
FREMONT        FAIR      73  73  97 CALM      30.02S
HOLLAND        CLEAR     74  70  87 S3        30.04R
GRAND RAPIDS   CLEAR     76  72  87 S3        30.04R
IONIA          FAIR      76  70  81 SW6       30.04S
KALAMAZOO      CLEAR     76  69  79 S5        30.06R
LUDINGTON      PTCLDY    76  71  84 CALM      30.00S
MARSHALL       CLEAR     74  67  78 CALM      30.06S
MOUNT PLEASANT CLEAR     74  71  88 CALM      30.03R
MUSKEGON       MOCLDY    76  68  76 S6        30.02R
SOUTH HAVEN    CLEAR     73  70  92 CALM      30.04R FOG
$$
MIZ016>042-020300-
NORTHERN LOWER MICHIGAN

CITY           SKY/WX    TMP DP  RH WIND       PRES   REMARKS
ALPENA         CLEAR     68  65  90 SE3       30.00R
BEAVER ISLAND  CLEAR     73  68  87 SW12G18   29.97S
BELLAIRE       CLEAR     72  69  90 CALM      29.99R
CADILLAC       CLEAR     73  70  90 SW5       30.04S
CHARLEVOIX     CLEAR     75  69  79 S5        30.01R
FRANKFORT      CLEAR     76  72  85 CALM      29.99R
GAYLORD        PTCLDY    74  70  87 SW5       30.03R
GRAYLING       CLEAR     74  69  83 SW3       30.04R
HARBOR SPRINGS PTCLDY    71  69  95 CALM      29.98S
HOUGHTON LAKE  CLEAR     75  69  81 SW3       30.04R
MANISTEE       CLEAR     73  68  83 CALM      30.00S
OSCODA         CLEAR     73  68  82 S7        30.01S
PELLSTON       PTCLDY    71  69  93 CALM      29.98S
ROGERS CITY    PTCLDY    77  70  77 S7        29.99S
TRAVERSE CITY  PTCLDY    79  70  74 CALM      29.98R
$$
MIZ007>008-015-020300-
EASTERN UPPER MICHIGAN

CITY           SKY/WX    TMP DP  RH WIND       PRES   REMARKS
KINROSS        CLEAR     72  70  94 S3        29.98S
MACKINAC ISLAN PTCLDY    70  67  92 CALM      29.99R
NEWBERRY       PTCLDY    71  69  94 SW8       29.96R
S. S. MARIE    CLEAR     72  68  87 E3        29.97R
$$
MIZ004>006-011>014-085-020300-
CENTRAL UPPER MICHIGAN

CITY           SKY/WX    TMP DP  RH WIND       PRES   REMARKS
MANISTIQUE     MOCLDY    66  65  96 S10       29.95S FOG
ESCANABA       PTCLDY    70  66  88 CALM      29.94R
MENOMINEE      MOCLDY    75  66  73 S3        29.94R
SAWYER-GWINN   MOCLDY    75  66  73 E5        29.96R
$$
MIZ001>003-009>011-084-020300-
WESTERN UPPER MICHIGAN

CITY           SKY/WX    TMP DP  RH WIND       PRES   REMARKS
IRON MOUNTAIN  PTCLDY    72  67  84 CALM      29.95R
HOUGHTON       PTCLDY    71  68  90 NW8       29.94R
IRONWOOD       PTCLDY    72  70  94 CALM      29.93R
$$

ABBREVIATIONS USED IN REMARKS
   TC - TEMPERATURE IN CELSIUS
  WCI - WIND CHILL INDEX
   HX - HEAT INDEX
  VSB - VISIBILITY




USA.gov is the U.S. government's official web portal to all federal, state and local government web resources and services.